Flag for Canada Weather past 2 weeks in Kelowna, British Columbia, Canada

Now
90 °F

Low clouds.


Feels Like: 86 °F
Forecast: 60 / 88 °F
Wind: 9 mph from Northeast

Location: Kelowna Airport

Current Time: Jul 4, 2015 at 5:24:54 PM

Latest Report: Jul 4, 2015 at 5:00 PM


Visibility: 9 mi

Pressure: 29.79 "Hg

Humidity: 13%

Dew point: 32 °F

Location of KelownaLocation

Historic Weather in Kelowna — Graph

°F

Kelowna temperature yesterday

Maximum temperature yesterday: 95 °F (at 4:00 PM)
Minimum temperature yesterday: 59 °F (at 6:00 AM)
Average temperature yesterday: 79 °F

Past Weeks' High & Low Weather Summary

 TemperatureHumidityPressure
High100 °F (Jun 27, 5:00 PM)94% (Jun 29, 10:00 AM)30.10 "Hg (Jun 29, 10:00 AM)
Low45 °F (Jun 21, 4:00 AM)13% (Jun 27, 3:00 PM)29.72 "Hg (Jul 3, 8:00 PM)
Average73 °F49%29.97 "Hg
* Reported Jun 19 4:00 PM — Jul 4 4:00 PM, Kelowna, Weather by CustomWeather, © 2015

Note: Actual official high and low records may vary slightly from our data, if they occured in-between our weather recording intervals... More about our weather records

Advertising

Kelowna weather history for previous 24 hours

 ConditionsComfort  
Time TempWeatherWind HumidityBarometerVisibility
4:00 PM
Sat, Jul 4
90 °FLow clouds.8 mph14%29.80 "Hg9 mi
3:00 PM90 °FLow clouds.13 mph13%29.80 "Hg9 mi
2:00 PM90 °FLow clouds.15 mph13%29.81 "Hg9 mi
1:00 PM88 °FLow clouds.8 mph13%29.81 "Hg8 mi
12:00 PM88 °FLow clouds.10 mph13%29.82 "Hg8 mi
11:45 AM88 °FLow clouds.13 mph13%29.82 "Hg9 mi
11:00 AM86 °FLow clouds.13 mph19%29.83 "Hg9 mi
10:00 AM82 °FLow clouds.10 mph25%29.84 "Hg9 mi
9:00 AM77 °FLow clouds.2 mph30%29.85 "Hg9 mi
8:00 AM73 °FLow clouds.2 mph38%29.85 "Hg9 mi
7:01 AM66 °FHaze.2 mph49%29.85 "Hg5 mi
6:00 AM57 °FSunny.3 mph67%29.85 "Hg9 mi
5:00 AM57 °FClear.2 mph63%29.83 "Hg9 mi
4:00 AM59 °FPassing clouds.2 mph63%29.82 "Hg9 mi
3:00 AM59 °FPassing clouds.5 mph63%29.81 "Hg9 mi
2:00 AM61 °FClear.2 mph63%29.81 "Hg9 mi
1:00 AM63 °FClear.2 mph64%29.80 "Hg9 mi
12:00 AM68 °FClear.5 mph53%29.79 "Hg9 mi
11:00 PM
Fri, Jul 3
70 °FClear.3 mph57%29.78 "Hg9 mi
10:00 PM75 °FSunny.5 mph50%29.76 "Hg9 mi
9:00 PM82 °FSunny.7 mph37%29.74 "Hg9 mi
8:00 PM90 °FSunny.13 mph26%29.72 "Hg9 mi
7:00 PM93 °FSunny.14 mph21%29.72 "Hg9 mi
6:00 PM95 °FSunny.14 mph19%29.74 "Hg9 mi
5:00 PM95 °FSunny.9 mph22%29.76 "Hg9 mi
Weather by CustomWeather, © 2015

See weather overviewHow to use our weather pages